Home > Weather > Tuscaloosa > Past weeks

Flag for USA Past Weather in Tuscaloosa, Alabama, USA — Yesterday and Last 2 Weeks

Now
78 °F

Passing clouds.


Feels Like: 81 °F
Forecast: 76 / 87 °F
Wind: 5 mph from South

Location: Tuscaloosa Municipal Airport

Current Time: Jul 27, 2016 at 12:56:14 AM

Latest Report: Jul 26, 2016 at 11:53 PM


Visibility: 10 mi

Pressure: 30.00 "Hg

Humidity: 90%

Dew Point: 75 °F

Location of TuscaloosaLocation

Past Weather in Tuscaloosa — Graph

°F

Tuscaloosa Temperature Yesterday

Maximum temperature yesterday: 94 °F (at 3:53 PM)
Minimum temperature yesterday: 73 °F (at 5:53 AM)
Average temperature yesterday: 83 °F

High & Low Weather Summary for the Past Weeks

 TemperatureHumidityPressure
High96 °F (Jul 21, 2:53 PM)100% (Jul 11, 11:53 PM)30.27 "Hg (Jul 11, 11:53 PM)
Low69 °F (Jul 13, 1:53 AM)46% (Jul 25, 4:53 PM)29.93 "Hg (Jul 26, 3:53 PM)
Average81 °F82%30.07 "Hg
* Reported Jul 11 11:53 PM — Jul 26 11:53 PM, Tuscaloosa, Weather by CustomWeather, © 2016

Note: Actual official high and low records may vary slightly from our data, if they occured in-between our weather recording intervals... More about our weather records

Advertising

Tuscaloosa Weather History for the Previous 24 Hours

Scroll right to see more
 ConditionsComfort  
Time TempWeatherWind HumidityBarometerVisibility
11:53 PM
Tue, Jul 26
78 °FPassing clouds.5 mph90%30.00 "Hg10 mi
10:53 PM79 °FClear.3 mph84%30.00 "Hg10 mi
9:53 PM80 °FClear.12 mph85%29.98 "Hg10 mi
8:53 PM82 °FClear.9 mph79%29.96 "Hg10 mi
7:53 PM83 °FSunny.10 mph72%29.94 "Hg10 mi
6:53 PM85 °FPassing clouds.9 mph68%29.94 "Hg10 mi
5:53 PM83 °FPartly sunny.7 mph74%29.94 "Hg10 mi
4:53 PM86 °FThundershowers. Mostly cloudy.16 mph65%29.93 "Hg10 mi
3:53 PM94 °FPassing clouds.9 mph49%29.93 "Hg10 mi
2:53 PM92 °FScattered clouds.8 mph52%29.95 "Hg10 mi
1:53 PM91 °FScattered clouds.3 mph50%29.97 "Hg10 mi
12:53 PM90 °FCloudy.5 mph54%29.98 "Hg10 mi
11:53 AM89 °FPassing clouds.7 mph57%30.02 "Hg10 mi
10:53 AM87 °FPassing clouds.8 mph63%30.02 "Hg10 mi
9:53 AM84 °FSunny.7 mph70%30.03 "Hg10 mi
8:53 AM83 °FSunny.6 mph74%30.04 "Hg10 mi
7:53 AM80 °FSunny.No wind81%30.04 "Hg10 mi
6:53 AM76 °FClear.No wind91%30.03 "Hg10 mi
5:53 AM73 °FClear.6 mph100%30.01 "Hg10 mi
4:53 AM74 °FClear.No wind94%30.00 "Hg10 mi
3:53 AM75 °FClear.No wind94%29.98 "Hg10 mi
2:53 AM78 °FClear.7 mph82%29.98 "Hg10 mi
1:53 AM79 °FClear.3 mph79%29.99 "Hg10 mi
12:53 AM80 °FClear.5 mph76%30.00 "Hg10 mi
Weather by CustomWeather, © 2016

See weather overviewHow to use our weather pages